ROMMA est une association bénévole à but non lucratif. Votre soutien est indispensable : ADHERER à ROMMA ou FAIRE un DON

Le Versoud - (38, Isère)

Vallée du Grésivaudan (220 m)   Longitude: 05° 51' 44" E   Latitude: 45° 13' 06" N Station partenaire n°6
 

Détail journalier du     <<     >>

Température Precipitation Humidité Pression Vent Dir Rafale Dir. rafale Ensol.
Heure (°C) (mm) (%) (hPa) (km/h) (km/h) (min)
01:00 5.6083101500---0
02:00 4.7086101600---0
03:00 4.6088101600---0
04:00 3.6090101600---0
05:00 3.4089101700---0
06:00 2.5091101700---0
07:00 2.1090101800---0
08:00 2.0092101800---0
09:00 2.4092101900---0
10:00 8.3071102100---45
11:00 10.2062102105NNE60
12:00 12.1053102106NE55
13:00 12.90511021011N35
14:00 13.7048102006NNO15
15:00 13.8047102003NNO5
16:00 14.9045102006N35
17:00 13.70481021010NNO0
18:00 13.3048102102NNO35
19:00 11.2056102103NNO0
20:00 8.9065102300---0
21:00 8.5067102300---0
22:00 7.2072102400---0
23:00 6.5075102400---0
minuit 5.8078102500---0

Graphique du 08-03-2019

 

Serveur OMMA